Location: DARK SKY Beskydy - Park tmavé oblohy, www.darkskybeskydy.cz
(49.4926°N, 18.5016°E)
Time: 14:54:52
(UTC+01:00)

Vanguard 1 - Pass Details

Date: 17 November 2025
Orbit: 650 x 3821 km, 34.2° (Epoch: 07 December)

Event Time Altitude Azimuth Distance (km) Brightness Sun altitude
Rises 16:25:54 0° 234° (SW) 6,651 16.5 -4.4°
Reaches altitude 10° 16:30:02 10° 229° (SW) 5,974 15.6 -5.0°
Maximum altitude 16:48:59 48° 163° (SSE) 4,477 13.4 -7.9°
Drops below altitude 10° 17:09:52 10° 99° (E) 6,540 13.7 -11.1°
Enters shadow 17:11:29 - 97° (E) 6,792 13.8 -11.4°
